Location: Grange Verzio
(44.5000°N, 6.9833°E)
Time: 06:02:54
(UTC+00:00)

Cosmos 2360 Rocket - Pass Details

Date: 01 February 2023
Orbit: 832 x 846 km, 71.0° (Epoch: 21 March)

Event Time Altitude Azimuth Distance (km) Brightness Sun altitude
Rises 20:19:31 0° 251° (WSW) 3,382 6.0 -39.0°
Reaches altitude 10° 20:22:39 10° 268° (W) 2,454 5.2 -39.5°
Maximum altitude 20:26:40 20° 314° (NW) 1,875 4.4 -40.2°
Enters shadow 20:26:59 20° 318° (NW) 1,880 4.4 -40.3°
